User: anonymous   Login
Location: Betra
(48.4113°N, 8.6634°E)
Time: 06:44:31
(UTC+00:00)
Language:

Cosmos 1703 Rocket - Orbit

View from above orbital plane
View from above orbital plane
View from above satellite
View from above satellite

Ground track
Ground track

The orbit data is extracted from the following two-line orbital elements,

1 16263U 85108B   24205.40078248  .00001280  00000-0  14914-3 0  9999
2 16263  82.5020 200.4645 0021247  84.5786  29.9787 14.84352294 67728
Epoch (UTC): 23 July 2024 09:37:07
Eccentricity: 0.0021247
inclination: 82.5020°
perigee height: 601 km
apogee height: 630 km
right ascension of ascending node: 200.4645°
argument of perigee: 84.5786°
revolutions per day: 14.84352294
mean anomaly at epoch: 29.9787°
orbit number at epoch: 6772

The dashed part of the orbit path shows where the satellite is in the earth's shadow,  

DLR